Starlink 3640

operational
NORAD ID: 51988 Int'l Des: 2022-025 Owner: SPXS Country: US Constellation: starlink
LEOCIRCULAR

About Starlink 3640

Description loading...

Live Position

Loading 3D Globe...

Upcoming Passes

Altitude History

Altitude vs Time

uPlot chart will show altitude changes over time

Two-Line Element Set

1 51988U 22025AJ 25259.28618023 -.00000215 00000-0 45855-5 0 9996
2 51988 53.2164 102.0499 0001320 90.0614 270.0529 15.08843859194735
Epoch: Sep 16, 2025 • Age: 19 hours

Current Status

Altitude 559.1 km
Velocity 7.58 km/s
Sub-Earth Point -53.11°S, 18.47°W
Launch Date Mar 9, 2022
Age 3.5 years
Type internet

Technical Details

Classification Payload
Mass 297.00 kg
Dry Mass 275.00 kg
Total Mass 297.00 kg
Length 0.20 m
Diameter 2.80 m
Span 9.00 m
Shape Box + pan
Manufacturer SPXS
Bus Type Starlink
Phase Status In Orbit
Owner/State SPXS/US

Large Constellations

Loading constellations...